Stations météo

Publicité
Chillingham Barns, Grande-Bretagne (99196): Température de l'air & dewpoint: 15.10.2019 05:00:00 - 21.10.2019 05:00:00 (BST)Chillingham Barns, Grande-Bretagne (99196): Quantités de précipitations: 15.10.2019 05:00:00 - 21.10.2019 05:00:00 (BST)
Date & Time tt [°C] td [°C] rr [mm]
21.10.2019 05:00:00 8,1 5,9 0,0
21.10.2019 04:00:00 7,8 6,1 0,0
21.10.2019 03:00:00 7,6 6,7 0,2
21.10.2019 02:00:00 7,9 7,6 0,8
21.10.2019 01:00:00 8,1 7,7 0,8
21.10.2019 00:00:00 7,9 7,6 1,0
20.10.2019 23:00:00 7,9 7,7 1,4
20.10.2019 22:00:00 8,1 7,4 0,4
20.10.2019 21:00:00 8,0 7,0 0,4
20.10.2019 20:00:00 8,5 6,0 0,0
20.10.2019 19:00:00 7,9 6,2 0,0
20.10.2019 18:00:00 8,7 4,9 0,0
20.10.2019 17:00:00 9,1 5,5 0,0
20.10.2019 16:00:00 9,2 6,2 0,0
20.10.2019 15:00:00 8,8 6,7 0,0
20.10.2019 14:00:00 8,8 7,1 0,0
20.10.2019 13:00:00 8,7 7,6 0,4
20.10.2019 12:00:00 8,3 7,8 0,6
20.10.2019 11:00:00 8,3 7,4 0,2
20.10.2019 10:00:00 8,1 7,1 0,6
20.10.2019 09:00:00 6,6 6,5 1,6
20.10.2019 08:00:00 6,4 6,0 0,4
20.10.2019 07:00:00 6,6 5,7 0,2
20.10.2019 06:00:00 7,4 5,3 0,0
20.10.2019 05:00:00 7,7 5,2 0,0
20.10.2019 04:00:00 8,0 5,8 0,0
20.10.2019 03:00:00 8,0 6,0 0,2
20.10.2019 02:00:00 8,2 6,6 0,2
20.10.2019 01:00:00 7,9 7,3 1,0
20.10.2019 00:00:00 8,4 7,2 0,0
19.10.2019 23:00:00 8,1 6,7 0,2
19.10.2019 22:00:00 8,3 7,0 0,0
19.10.2019 21:00:00 8,4 7,2 0,6
19.10.2019 20:00:00 8,5 7,4 1,2
19.10.2019 19:00:00 8,5 7,3 2,0
19.10.2019 18:00:00 8,6 7,6 1,8
19.10.2019 17:00:00 8,3 7,1 2,8
19.10.2019 16:00:00 8,4 7,6 2,6
19.10.2019 15:00:00 8,6 7,8 3,2
19.10.2019 14:00:00 8,8 8,4 5,2
19.10.2019 13:00:00 9,0 8,7 1,4
19.10.2019 12:00:00 8,6 8,6 2,4
19.10.2019 11:00:00 7,4 7,4 0,0
19.10.2019 10:00:00 6,1 6,1 0,2
19.10.2019 09:00:00 4,2 4,2 0,2
19.10.2019 08:00:00 2,6 2,6 0,0
19.10.2019 07:00:00 1,6 1,6 0,0
19.10.2019 06:00:00 1,4 1,4 0,0
19.10.2019 05:00:00 0,5 0,3 0,0
19.10.2019 04:00:00 1,9 1,9 0,0
19.10.2019 03:00:00 2,2 2,2 0,0
19.10.2019 02:00:00 3,0 3,0 0,0
19.10.2019 01:00:00 3,4 3,2 0,0
19.10.2019 00:00:00 4,8 4,8 0,0
18.10.2019 23:00:00 5,1 5,0 0,0
18.10.2019 22:00:00 5,2 4,4 0,0
18.10.2019 21:00:00 6,5 5,6 0,0
18.10.2019 20:00:00 8,1 7,1 0,0
18.10.2019 19:00:00 8,4 7,3 0,0
18.10.2019 18:00:00 9,1 7,6 0,0
18.10.2019 17:00:00 8,9 7,1 0,0
18.10.2019 16:00:00 9,8 7,7 0,0
18.10.2019 15:00:00 10,4 7,5 0,0
18.10.2019 14:00:00 9,6 8,2 0,2
18.10.2019 13:00:00 9,3 8,6 0,4
18.10.2019 12:00:00 8,2 7,9 1,4
18.10.2019 11:00:00 7,5 7,3 1,4
18.10.2019 10:00:00 7,2 7,0 2,4
18.10.2019 09:00:00 7,1 6,9 0,8
18.10.2019 08:00:00 6,9 6,5 0,0
18.10.2019 07:00:00 7,8 7,6 0,0
18.10.2019 06:00:00 7,1 6,8 0,0
18.10.2019 05:00:00 7,4 6,8 0,0
18.10.2019 04:00:00 7,4 6,8 0,0
18.10.2019 03:00:00 7,8 7,3 0,0
18.10.2019 02:00:00 8,8 7,7 0,0
18.10.2019 01:00:00 9,2 8,2 0,0
18.10.2019 00:00:00 9,7 8,8 0,2
17.10.2019 23:00:00 9,7 8,6 0,4
17.10.2019 22:00:00 9,7 8,2 0,4
17.10.2019 21:00:00 9,6 7,0 0,0
17.10.2019 20:00:00 9,9 6,4 0,0
17.10.2019 19:00:00 10,0 6,6 0,0
17.10.2019 18:00:00 10,4 7,2 0,0
17.10.2019 17:00:00 10,9 7,5 0,0
17.10.2019 16:00:00 12,7 7,1 0,0
17.10.2019 15:00:00 12,9 6,2 0,0
17.10.2019 14:00:00 - - 0,0
17.10.2019 13:00:00 - - -
17.10.2019 12:00:00 10,8 7,5 0,0
17.10.2019 11:00:00 9,7 7,1 0,0
17.10.2019 10:00:00 7,9 6,1 0,0
17.10.2019 09:00:00 6,9 6,0 0,0
17.10.2019 08:00:00 4,6 4,0 0,0
17.10.2019 07:00:00 5,1 4,1 0,0
17.10.2019 06:00:00 6,4 5,0 0,0
17.10.2019 05:00:00 6,0 4,7 0,0
17.10.2019 04:00:00 5,2 4,5 0,0
17.10.2019 03:00:00 4,9 4,2 0,0
17.10.2019 02:00:00 5,3 4,3 0,0
17.10.2019 01:00:00 5,0 3,9 0,0
17.10.2019 00:00:00 6,3 4,5 0,0
16.10.2019 23:00:00 6,2 4,1 0,2
16.10.2019 22:00:00 7,6 5,7 0,0
16.10.2019 21:00:00 8,0 5,5 0,0
16.10.2019 20:00:00 7,4 5,0 0,0
16.10.2019 19:00:00 9,1 5,7 0,0
16.10.2019 18:00:00 10,2 6,6 0,0
16.10.2019 17:00:00 11,6 7,3 0,0
16.10.2019 16:00:00 12,7 8,0 0,0
16.10.2019 15:00:00 12,5 9,5 0,0
16.10.2019 14:00:00 12,7 11,4 0,2
16.10.2019 13:00:00 12,1 10,8 0,0
16.10.2019 12:00:00 11,6 10,5 0,0
16.10.2019 11:00:00 10,5 9,7 0,0
16.10.2019 10:00:00 10,3 9,4 0,0
16.10.2019 09:00:00 9,5 8,6 0,0
16.10.2019 08:00:00 9,1 8,4 0,0
16.10.2019 07:00:00 8,7 8,0 0,2
16.10.2019 06:00:00 8,6 8,0 0,0
16.10.2019 05:00:00 8,2 7,4 0,0
16.10.2019 04:00:00 7,8 6,9 0,0
16.10.2019 03:00:00 6,4 5,4 0,2
16.10.2019 02:00:00 7,4 6,3 0,0
16.10.2019 01:00:00 7,5 6,9 0,0
16.10.2019 00:00:00 7,8 7,0 0,0
15.10.2019 23:00:00 8,5 7,7 0,2
15.10.2019 22:00:00 8,7 7,3 0,0
15.10.2019 21:00:00 10,0 9,5 0,2
15.10.2019 20:00:00 10,0 9,5 0,0
15.10.2019 19:00:00 10,2 9,3 0,2
15.10.2019 18:00:00 10,6 9,4 0,2
15.10.2019 17:00:00 11,2 9,7 0,0
15.10.2019 16:00:00 12,2 11,2 0,2
15.10.2019 15:00:00 11,4 10,3 0,2
15.10.2019 14:00:00 11,5 10,5 0,2
15.10.2019 13:00:00 11,2 10,2 0,2
15.10.2019 12:00:00 10,4 10,0 0,2
15.10.2019 11:00:00 9,9 9,7 0,2
15.10.2019 10:00:00 9,4 9,2 0,0
15.10.2019 09:00:00 8,9 8,6 0,2
15.10.2019 08:00:00 8,8 8,5 0,2
15.10.2019 07:00:00 8,9 8,6 0,0
15.10.2019 06:00:00 8,9 8,7 0,2
15.10.2019 05:00:00 8,8 8,6 0,0

tt = Température de l'air
td = dewpoint
rr = Quantités de précipitations

stations d'obs. à proximité